Location: Ahstedt
(52.2048°N, 10.1060°E)
Time: 00:12:59
(UTC+00:00)

Cosmos 1190 Rocket - Pass Details

Date: 18 January 2026
Orbit: 753 x 775 km, 74.1° (Epoch: 9 February)

Event Time Altitude Azimuth Distance (km) Brightness Sun altitude
Rises 06:11:25 0° 199° (SSW) 3,207 7.2 -10.0°
Reaches altitude 10° 06:13:47 10° 199° (SSW) 2,283 6.5 -9.7°
Maximum altitude 06:18:57 80° 112° (ESE) 773 4.2 -8.9°
Drops below altitude 10° 06:24:09 10° 27° (NNE) 2,290 6.5 -8.2°
Sets 06:26:31 0° 27° (NNE) 3,219 7.3 -7.9°
